GW2624 Weather Reports


time (UTC)temp
C
wind
direction
speed
KPH
gust
KPH
rain 1hr
cm
rain 24hr
cm
rain mn
cm
humidity
%
barometer
mb
20260904050405 18 171 0.0 1.6 0.00 0.00 0.00 58 1006.5
20260904045905 18 146 0.0 4.8 0.00 0.00 0.00 57 1006.5
20260904045405 18 146 0.0 4.8 0.00 0.00 0.00 57 1006.5
20260904044905 18 144 1.6 4.8 0.00 0.00 0.00 57 1006.4
20260904044405 18 142 3.2 4.8 0.00 0.00 0.00 58 1006.5
20260904043404 18 124 0.0 3.2 0.00 0.00 0.00 60 1006.5
20260904040905 18 67 0.0 3.2 0.00 0.00 0.00 57 1006.6
20260904040404 18 109 0.0 3.2 0.00 0.00 0.00 58 1006.7
20260904034405 19 110 0.0 3.2 0.00 0.00 0.00 58 1006.9
20260904033905 20 46 0.0 1.6 0.00 0.00 0.00 56 1006.8
20260904033405 20 46 0.0 0.0 0.00 0.00 0.00 55 1006.8
20260904031905 21 46 0.0 0.0 0.00 0.00 0.00 51 1006.8
20260904031405 21 46 0.0 0.0 0.00 0.00 0.00 51 1006.8
20260904030905 21 46 0.0 0.0 0.00 0.00 0.00 50 1006.8
20260904030405 22 46 0.0 0.0 0.00 0.00 0.00 49 1006.7
20260904024904 22 46 0.0 4.8 0.00 0.00 0.00 46 1006.5
20260904022905 24 66 0.0 12.9 0.00 0.00 0.00 42 1006.1
20260904022405 24 30 4.8 12.9 0.00 0.00 0.00 40 1005.9
20260904014405 25 204 3.2 8.0 0.00 0.00 0.00 36 1005.2
20260904013905 25 236 1.6 8.0 0.00 0.00 0.00 35 1005.1
20260904013405 25 141 1.6 8.0 0.00 0.00 0.00 36 1005.0
20260904012905 25 141 0.0 9.7 0.00 0.00 0.00 35 1005.0
20260904011905 26 144 1.6 8.0 0.00 0.00 0.00 34 1005.0
20260904010405 26 207 1.6 8.0 0.00 0.00 0.00 34 1004.9
20260904005904 26 243 3.2 9.7 0.00 0.00 0.00 33 1004.9
20260904004405 26 206 1.6 8.0 0.00 0.00 0.00 33 1004.8
20260904002404 27 197 3.2 14.5 0.00 0.00 0.00 31 1004.7
20260904000405 28 202 4.8 12.9 0.00 0.00 0.00 31 1004.7
20260903234405 28 164 4.8 12.9 0.00 0.00 0.00 30 1004.6
20260903233905 28 162 3.2 16.1 0.00 0.00 0.00 30 1004.6
20260903232405 28 231 1.6 16.1 0.00 0.00 0.00 29 1004.6
20260903231904 28 225 4.8 16.1 0.00 0.00 0.00 29 1004.7
20260903225405 29 184 4.8 14.5 0.00 0.00 0.00 29 1004.7
20260903224405 29 202 4.8 14.5 0.00 0.00 0.00 29 1004.9
20260903223905 29 196 6.4 14.5 0.00 0.00 0.00 28 1004.9
20260903221404 30 258 8.0 14.5 0.00 0.00 0.00 28 1005.0
20260903220405 29 237 4.8 9.7 0.00 0.00 0.00 28 1005.1
20260903214404 28 242 3.2 12.9 0.00 0.00 0.00 29 1005.3
20260903213905 28 227 3.2 9.7 0.00 0.00 0.00 28 1005.5
20260903212904 29 226 1.6 9.7 0.00 0.00 0.00 29 1005.6
20260903211904 29 205 4.8 19.3 0.00 0.00 0.00 27 1005.6
20260903205905 29 181 4.8 14.5 0.00 0.00 0.00 27 1006.0
20260903205405 30 204 8.0 14.5 0.00 0.00 0.00 28 1006.0
20260903204905 29 45 3.2 14.5 0.00 0.00 0.00 29 1006.0
20260903203404 28 144 6.4 19.3 0.00 0.00 0.00 30 1006.1
20260903202405 28 161 6.4 19.3 0.00 0.00 0.00 30 1006.2
20260903195404 28 263 6.4 11.3 0.00 0.00 0.00 29 1006.8
20260903193404 28 34 1.6 11.3 0.00 0.00 0.00 32 1007.1
20260903191904 28 246 3.2 9.7 0.00 0.00 0.00 30 1007.4
20260903190905 28 280 3.2 9.7 0.00 0.00 0.00 32 1007.7
20260903190405 28 11 1.6 12.9 0.00 0.00 0.00 32 1007.8
20260903185904 28 181 4.8 12.9 0.00 0.00 0.00 29 1008.0
20260903184904 28 211 1.6 9.7 0.00 0.00 0.00 33 1008.3
20260903183905 28 208 3.2 9.7 0.00 0.00 0.00 32 1008.3
20260903183405 28 243 1.6 9.7 0.00 0.00 0.00 31 1008.4
20260903182905 27 74 0.0 8.0 0.00 0.00 0.00 33 1008.5
20260903181905 27 253 3.2 4.8 0.00 0.00 0.00 33 1008.6
20260903180905 27 90 1.6 4.8 0.00 0.00 0.00 34 1008.8
20260903175905 27 241 3.2 8.0 0.00 0.00 0.00 31 1008.8
20260903174405 27 300 1.6 4.8 0.00 0.00 0.00 34 1009.0
20260903173404 26 98 3.2 4.8 0.00 0.00 0.00 33 1009.0
20260903172904 26 246 3.2 4.8 0.00 0.00 0.00 35 1009.1
20260903170904 25 50 1.6 4.8 0.00 0.00 0.00 38 1009.0
20260903164904 25 319 1.6 9.7 0.00 0.00 0.00 42 1009.1
20260903163404 24 292 3.2 11.3 0.00 0.00 0.00 45 1009.0
20260903161904 24 146 3.2 9.7 0.00 0.00 0.00 45 1009.0
20260903160905 23 282 1.6 9.7 0.00 0.00 0.00 46 1009.0
20260903160404 23 220 3.2 4.8 0.00 0.00 0.00 46 1008.9
20260903155905 23 311 1.6 4.8 0.00 0.00 0.00 46 1008.9
20260903152905 21 228 1.6 4.8 0.00 0.00 0.00 53 1009.2
20260903151905 20 272 1.6 4.8 0.00 0.00 0.00 54 1009.3
20260903150404 18 247 1.6 4.8 0.00 0.00 0.00 54 1009.3
20260903145905 18 227 0.0 3.2 0.00 0.00 0.00 56 1009.4
20260903143904 17 207 0.0 3.2 0.00 0.00 0.00 61 1009.4
20260903142904 16 141 0.0 0.0 0.00 0.00 0.00 66 1009.4
20260903141404 14 141 0.0 0.0 0.00 0.00 0.00 73 1009.3
20260903140904 13 141 0.0 0.0 0.00 0.00 0.00 76 1009.3
20260903135905 12 141 0.0 0.0 0.00 0.00 0.00 79 1009.4
20260903135405 12 141 0.0 0.0 0.00 0.00 0.00 80 1009.4
20260903134904 12 141 0.0 0.0 0.00 0.00 0.00 81 1009.3
20260903133905 11 18 0.0 1.6 0.00 0.00 0.00 81 1009.4
20260903131905 11 141 0.0 0.0 0.00 0.00 0.00 80 1009.3
20260903131405 11 141 0.0 0.0 0.00 0.00 0.00 80 1009.2
20260903130404 11 141 0.0 0.0 0.00 0.00 0.00 79 1009.0
20260903125404 11 141 0.0 0.0 0.00 0.00 0.00 79 1008.9
20260903124904 11 141 0.0 1.6 0.00 0.00 0.00 79 1008.9
20260903124404 11 141 0.0 1.6 0.00 0.00 0.00 78 1008.8
20260903123404 11 141 0.0 0.0 0.00 0.00 0.00 78 1008.7
20260903121905 11 141 0.0 0.0 0.00 0.00 0.00 77 1008.6
20260903121405 11 141 0.0 0.0 0.00 0.00 0.00 77 1008.6
20260903120904 11 141 0.0 0.0 0.00 0.00 0.00 77 1008.5
20260903112905 11 141 0.0 3.2 0.00 0.00 0.00 73 1008.6
20260903111405 12 141 0.0 1.6 0.00 0.00 0.00 72 1008.4
20260903110905 12 0 0.0 1.6 0.00 0.00 0.00 72 1008.4
20260903110404 12 0 0.0 1.6 0.00 0.00 0.00 71 1008.4
20260903105905 12 0 0.0 0.0 0.00 0.00 0.00 70 1008.3
20260903104404 12 0 0.0 3.2 0.00 0.00 0.00 69 1008.3
20260903103404 12 0 0.0 3.2 0.00 0.00 0.00 67 1008.3
20260903102904 12 0 0.0 1.6 0.00 0.00 0.00 67 1008.2
20260903101905 13 0 1.6 3.2 0.00 0.00 0.00 64 1008.1
20260903100904 13 0 0.0 3.2 0.00 0.00 0.00 62 1008.0
20260903100405 13 0 1.6 4.8 0.00 0.00 0.00 61 1007.9
20260903095404 13 0 1.6 4.8 0.00 0.00 0.00 62 1007.8
20260903094904 13 0 1.6 4.8 0.00 0.00 0.00 62 1007.7
20260903094405 13 0 3.2 4.8 0.00 0.00 0.00 61 1007.8
20260903093905 13 0 1.6 4.8 0.00 0.00 0.00 62 1007.8
20260903093404 13 0 0.0 4.8 0.00 0.00 0.00 62 1007.8
20260903091405 13 0 0.0 1.6 0.00 0.00 0.00 62 1007.8
20260903090905 13 0 0.0 4.8 0.00 0.00 0.00 63 1007.9
20260903085904 13 0 1.6 4.8 0.00 0.00 0.00 63 1007.8
20260903084405 14 0 0.0 1.6 0.00 0.00 0.00 61 1007.8
20260903083905 14 0 0.0 1.6 0.00 0.00 0.00 61 1007.9
20260903082404 15 0 1.6 3.2 0.00 0.00 0.00 54 1007.8
20260903081905 15 0 1.6 1.6 0.00 0.00 0.00 54 1007.8
20260903080904 15 0 0.0 1.6 0.00 0.00 0.00 54 1007.9
20260903080405 15 0 0.0 3.2 0.00 0.00 0.00 55 1007.8
20260903074904 15 0 1.6 4.8 0.00 0.00 0.00 57 1007.7
20260903073905 15 0 0.0 4.8 0.00 0.00 0.00 56 1007.7
20260903072904 15 0 0.0 4.8 0.00 0.00 0.00 57 1007.8
20260903071905 15 0 0.0 3.2 0.00 0.00 0.00 54 1007.8
20260903071404 16 0 0.0 4.8 0.00 0.00 0.00 54 1007.8
20260903070405 16 0 0.0 4.8 0.00 0.00 0.00 53 1007.9
20260903065405 16 0 1.6 4.8 0.00 0.00 0.00 50 1007.8
20260903064404 16 0 3.2 4.8 0.00 0.00 0.00 54 1007.7
20260903063904 16 0 1.6 4.8 0.00 0.00 0.00 54 1007.7
20260903063404 16 0 0.0 3.2 0.00 0.00 0.00 52 1007.7
20260903062404 16 138 0.0 4.8 0.00 0.00 0.00 52 1007.8
20260903061405 16 138 3.2 8.0 0.00 0.00 0.00 52 1007.6
20260903060904 16 140 3.2 4.8 0.00 0.00 0.00 53 1007.6
20260903060405 16 155 3.2 4.8 0.00 0.00 0.00 53 1007.5
20260903055905 16 155 0.0 4.8 0.00 0.00 0.00 53 1007.5
20260903055404 16 155 0.0 4.8 0.00 0.00 0.00 54 1007.4
20260903054904 16 157 3.2 4.8 0.00 0.00 0.00 53 1007.4
20260903054404 16 130 3.2 4.8 0.00 0.00 0.00 55 1007.5
20260903053906 16 132 0.0 4.8 0.00 0.00 0.00 57 1007.4
20260903052904 17 138 0.0 1.6 0.00 0.00 0.00 55 1007.3
20260903051404 17 138 0.0 0.0 0.00 0.00 0.00 52 1007.4